Regional Weather Roundup
Issued by NWS

Home | Current Version | Previous Version | Graphics & Text | Print | Product List | Glossary Off
Versions: 1 2 3 4 5 6 7 8 9 10 11 12 13 14 15 16 17 18 19 20 21 22 23 24 25 26 27 28 29 30 31 32 33 34 35 36 37 38 39 40 41 42 43 44 45 46 47 48 49 50

000
ASUS43 KTOP 271908
RWRKS

WEATHER ROUNDUP FOR KANSAS
NATIONAL WEATHER SERVICE GOODLAND KS
200 PM CDT SAT AUG 27 2016

NOTE:  "FAIR" INDICATES FEW OR NO CLOUDS BELOW 12,000 FEET WITH NO
SIGNIFICANT WEATHER AND/OR OBSTRUCTIONS TO VISIBILITY.

KSZ001>006-013>018-027>032-041>047-272000-
NORTHWEST KANSAS

CITY           SKY/WX    TMP DP  RH WIND       PRES   REMARKS
GOODLAND       SUNNY     78  60  53 SE8       30.06F
HAYS           SUNNY     82  63  51 SE8       30.03S
HILL CITY      SUNNY     82  65  56 VRB7      30.03F
RUSSELL        SUNNY     82  65  56 SE8       30.02F
$$

KSZ061>065-074>080-084>089-272000-
SOUTHWEST KANSAS

CITY           SKY/WX    TMP DP  RH WIND       PRES   REMARKS
DODGE CITY     CLOUDY    84  63  49 SE12      30.04F
ELKHART          N/A     88  59  37 S10         N/A
GARDEN CITY    SUNNY     83  63  50 S13       30.03F
GREAT BEND     MOSUNNY   84  64  51 S12       30.02S
LIBERAL        SUNNY     86  64  48 S13G18    30.03F
PRATT          MOSUNNY   82  61  50 S8        30.04S
$$

KSZ066>073-081>083-090>101-272000-
SOUTHEAST KANSAS

CITY           SKY/WX    TMP DP  RH WIND       PRES   REMARKS
CHANUTE        MOSUNNY   88  74  63 S10       30.02F HX  96
COFFEYVILLE    MOSUNNY   91  70  49 S8        30.01F HX  96
HUTCHINSON     MOSUNNY   86  70  58 VRB5      30.03S
MEDICINE LODGE   N/A     86  65  49 S10       30.02F
NEWTON         MOSUNNY   85  72  65 S8        30.04S
PARSONS        MOSUNNY   90  70  51 VRB5      30.02F HX  95
WICHITA INTL   MOSUNNY   87  71  58 SE8       30.02S
WICHITA JABRA  SUNNY     85  72  65 SE6       30.02F
WICHITA MCCONL SUNNY     86  71  60 S6        30.02F
WINFIELD       SUNNY     86  74  67 S8        30.03F
$$

KSZ007>012-019>026-033>040-048>060-102>105-272000-
NORTHEAST KANSAS

CITY           SKY/WX    TMP DP  RH WIND       PRES   REMARKS
CONCORDIA      SUNNY     80  67  64 E6        30.04S
EMPORIA        MOSUNNY   83  71  67 VRB5      30.03S
LAWRENCE       MOSUNNY   85  72  65 VRB5      30.02S
MANHATTAN      MOSUNNY   82  69  64 CALM      30.02F
MARYSVILLE     SUNNY     81  68  65 SW5       30.03F
OLATHE IND     MOSUNNY   84  73  69 S8        30.03S
OLATHE EXE     MOSUNNY   84  73  69 S8        30.03S
SALINA         MOSUNNY   84  68  58 S6        30.03S
TOPEKA BILLARD PTSUNNY   83  71  67 S5        30.02S
TOPEKA FORBES  PTSUNNY   84  71  65 S7        30.03S
$$




USA.gov is the U.S. government's official web portal to all federal, state and local government web resources and services.